Probability
0 0 0 0 0 0 0 0 0 0 0 0 0 0 0 0 0 0 0 0 0 0 0 0 0 0 0 0 0 0 0 0 0 0 0 0 0 0 0 0 0 0 0
0 0 0 0 0 0 0 0 0 0 0 0 0 0 0 0 0 0 0 0 0 0 0 0 0 0 0 0 0 0 0 0 0 0 0 0 0 0 0 0 0 0 0
0 0 0 0 0 0 0 0 0 0 0 0 0 0 0 0 0 0 0 0 0 0 0 0 0 0 0 0 0 0 0 0 0 0 0 0 0 0 0 0 0 0 0
0 0 0 0 0 0 0 0 0 0 0 0 0 0 0 0 0 0 0 0 0 0 0 0 0 0 0 0 0 0 0 0 0 0 0 0 0 0 0 0 0 0 0
0 0 0 0 0 0 0 0 0 0 0 0 0 0 0 0 0 0 0 0 0 0 0 0 0 0 0 0 0 0 0 0 0 0 0 0 0 0 0 0 0 0 0
0 0 0 0 0 0 0 0 0 0 0 0 0 0 0 0 0 0 0 0 0 0 0 0 0 0 0 0 0 0 0 0 0 0 0 0 0 0 0 0 0 0 0
0 0 0 0 0 0 0 0 0 0 0 0 0 0 0 0 0 0 0 0 0 0 0 0 0 0 0 0 0 0 0 0 0 0 0 0 0 0 0 0 0 0 0
0 0 0 0 0 0 0 0 0 0 0 0 0 0 0 0 0 0 0 0 0 0 0 0 0 0 0 0 0 0 0 0 0 0 0 0 0 0 0 0 0 0 0
0 0 0 0 0 0 0 0 0 0 0 0 0 0 0 0 0 0 0 0 0 0 0 0 0 0 0 0 0 0 0 0 0 0 0 0 0 0 0 0 0 0 0
0 0 0 0 0 0 0 0 0 0 0 0 0 0 0 0 0 0 0 0 0 0 0 0 0 0 0 0 0 0 0 0 0 0 0 0 0 0 0 0 0 0 0
0 0 0 0 0 0 0 0 0 0 0 0 0 0 0 0 0 0 0 0 0 0 0 0 0 0 0 0 0 0 0 0 0 0 0 0 0 0 0 0 0 0 0
0 0 0 0 0 0 0 0 0 0 0 0 0 0 0 0 0 0 0 0 0 0 0 0 0 0 0 0 0 0 0 0 0 0 0 0 0 0 0 0 0 0 0
0 0 0 0 0 0 0 0 0 0 0 0 0 0 0 0 0 0 0 0 0 0 0 0 0 0 0 0 0 0 0 0 0 0 0 0 0 0 0 0 0 0 0
0 0 0 0 0 0 0 0 0 0 0 0 0 0 0 0 0 0 0 0 0 0 0 0 0 0 0 0 0 0 0 0 0 0 0 0 0 0 0 0 0 0 0
0 0 0 0 0 0 0 0 0 0 0 0 0 0 0 0 0 0 0 0 0 0 0 0 0 0 0 0 0 0 0 0 0 0 0 0 0 0 0 0 0 0 0
0 0 0 0 0 0 0 0 0 0 0 0 0 0 0 0 0 0 0 0 0 0 0 0 0 0 0 0 0 0 0 0 0 0 0 0 0 0 0 0 0 0 0
0 0 0 0 0 0 0 0 0 0 0 0 0 0 0 0 0 0 0 0 0 0 0 0 0 0 0 0 0 0 0 0 0 0 0 0 0 0 0 0 0 0 0
0 0 0 0 0 0 0 0 0 0 0 0 0 0 0 0 0 0 0 0 0 0 0 0 0 0 0 0 0 0 0 0 0 0 0 0 0 0 0 0 0 0 0
0 0 0 0 0 0 0 0 0 0 0 0 0 0 0 0 0 0 0 0 0 0 0 0 0 0 0 0 0 0 0 0 0 0 0 0 0 0 0 0 0 0 0
0 0 0 0 0 0 0 0 0 0 0 0 0 0 0 0 0 0 0 0 0 0 0 0 0 0 0 0 0 0 0 0 0 0 0 0 0 0 0 0 0 0 0
0 0 0 0 0 0 0 0 0 0 0 0 0 0 0 0 0 0 0 0 0 0 0 0 0 0 0 0 0 0 0 0 0 0 0 0 0 0 0 0 0 0 0
0 0 0 0 0 0 0 0 0 0 0 0 0 0 0 0 0 0 0 0 0 0 0 0 0 0 0 0 0 0 0 0 0 0 0 0 0 0 0 0 0 0 0
0 0 0 0 0 0 0 0 0 0 0 0 0 0 0 0 0 0 0 0 0 0 0 0 0 0 0 0 0 0 0 0 0 0 0 0 0 0 0 0 0 0 0
0 0 0 0 0 0 0 0 0 0 0 0 0 0 0 0 0 0 0 0 0 0 0 0 0 0 0 0 0 0 0 0 0 0 0 0 0 0 0 0 0 0 0
0 0 0 0 0 0 0 0 0 0 0 0 0 0 0 0 0 0 0 0 0 0 0 0 0 0 0 0 0 0 0 0 0 0 0 0 0 0 0 0 0 0 0
0 0 0 0 0 0 0 0 0 0 0 0 0 0 0 0 0 0 0 0 0 0 0 0 0 0 0 0 0 0 0 0 0 0 0 0 0 0 0 0 0 0 0
Height
5654 5651 5648 5645 5642 5640 5637 5635 5633 5631 5628 5626 5624 5622 5621 5619 5618 5617 5616 5616 5615 5615 5616 5617 5618 5619 5620 5621 5622 5624 5625 5626 5629 5634 5635 5636 5637 5639 5641 5643 5645 5647 5649
5648 5645 5642 5638 5635 5632 5629 5627 5624 5622 5619 5617 5615 5613 5612 5610 5608 5607 5606 5605 5604 5603 5603 5604 5604 5605 5606 5607 5608 5609 5610 5611 5613 5616 5618 5619 5621 5623 5625 5627 5628 5630 5633
5642 5638 5635 5631 5628 5625 5622 5619 5616 5613 5610 5608 5606 5604 5602 5600 5598 5597 5595 5593 5592 5591 5591 5591 5591 5591 5591 5592 5592 5593 5594 5595 5596 5598 5601 5602 5603 5604 5606 5609 5611 5612 5615
5635 5632 5628 5625 5621 5618 5614 5611 5607 5604 5601 5599 5596 5594 5591 5590 5588 5586 5584 5582 5580 5579 5578 5577 5577 5576 5576 5576 5576 5576 5577 5577 5578 5579 5582 5583 5585 5586 5587 5590 5592 5594 5597
5629 5626 5622 5618 5615 5611 5607 5603 5599 5596 5593 5589 5586 5583 5581 5579 5577 5574 5572 5570 5568 5566 5565 5563 5562 5561 5561 5560 5560 5560 5560 5560 5560 5561 5562 5564 5566 5567 5569 5570 5573 5575 5578
5623 5619 5615 5612 5608 5604 5599 5595 5591 5587 5583 5580 5577 5574 5571 5568 5565 5562 5560 5558 5555 5553 5551 5549 5547 5546 5545 5544 5543 5542 5542 5541 5542 5542 5543 5545 5546 5547 5549 5550 5553 5555 5559
5617 5613 5609 5605 5600 5596 5592 5587 5583 5578 5574 5570 5567 5563 5560 5557 5553 5550 5547 5544 5541 5539 5537 5534 5532 5530 5529 5527 5526 5524 5523 5522 5522 5523 5524 5524 5526 5527 5528 5530 5531 5534 5538
5611 5606 5602 5597 5592 5588 5583 5579 5574 5569 5565 5561 5556 5553 5549 5545 5541 5538 5534 5531 5528 5525 5522 5519 5517 5515 5512 5510 5509 5507 5506 5504 5504 5504 5504 5504 5504 5505 5506 5508 5509 5512 5516
5604 5599 5594 5589 5584 5580 5575 5570 5565 5560 5555 5550 5546 5541 5537 5533 5528 5525 5521 5518 5514 5511 5508 5504 5501 5499 5496 5493 5492 5490 5489 5486 5485 5484 5484 5484 5484 5484 5485 5486 5488 5491 5495
5596 5591 5587 5582 5576 5571 5566 5561 5556 5550 5545 5540 5535 5530 5525 5521 5516 5511 5507 5504 5500 5497 5493 5489 5485 5482 5479 5475 5473 5471 5470 5468 5467 5466 5465 5464 5464 5464 5464 5465 5467 5470 5473
5588 5583 5578 5573 5568 5562 5557 5551 5546 5541 5535 5530 5525 5519 5514 5509 5504 5499 5494 5490 5486 5482 5477 5473 5469 5465 5461 5458 5455 5453 5451 5450 5448 5447 5446 5446 5445 5445 5445 5445 5446 5449 5453
5580 5575 5569 5564 5559 5553 5548 5542 5537 5531 5525 5519 5514 5508 5502 5497 5492 5486 5481 5476 5472 5467 5462 5458 5453 5448 5444 5441 5438 5435 5433 5432 5430 5429 5429 5428 5427 5427 5427 5427 5428 5431 5434
5571 5566 5560 5554 5549 5544 5538 5532 5527 5521 5515 5509 5503 5497 5491 5485 5479 5474 5469 5464 5458 5453 5448 5442 5437 5433 5428 5425 5421 5418 5416 5415 5413 5412 5411 5410 5410 5409 5409 5410 5411 5414 5417
5561 5556 5550 5545 5539 5533 5528 5522 5516 5510 5504 5498 5492 5486 5479 5473 5468 5462 5457 5451 5446 5440 5434 5429 5423 5418 5413 5409 5406 5402 5400 5398 5396 5395 5394 5393 5392 5392 5392 5393 5395 5397 5400
5551 5546 5540 5534 5529 5523 5517 5511 5505 5499 5493 5487 5481 5474 5468 5462 5456 5450 5445 5440 5434 5428 5422 5416 5410 5405 5400 5395 5391 5387 5384 5382 5380 5378 5377 5376 5376 5376 5376 5377 5379 5381 5384
5541 5536 5530 5524 5518 5513 5507 5500 5494 5488 5482 5475 5469 5463 5457 5451 5445 5439 5433 5427 5421 5415 5409 5403 5398 5392 5387 5382 5377 5373 5369 5367 5365 5363 5361 5361 5360 5360 5361 5362 5363 5365 5368
5531 5525 5519 5514 5508 5502 5496 5490 5484 5477 5470 5464 5458 5451 5445 5439 5433 5427 5421 5415 5409 5403 5397 5391 5385 5380 5375 5369 5365 5360 5357 5353 5350 5349 5347 5346 5346 5346 5347 5347 5348 5350 5353
5520 5514 5509 5504 5498 5492 5486 5480 5474 5467 5460 5453 5446 5440 5434 5428 5422 5416 5410 5404 5397 5391 5385 5379 5373 5368 5362 5357 5352 5348 5344 5341 5338 5336 5334 5333 5332 5333 5333 5334 5335 5337 5339
5509 5504 5499 5493 5488 5482 5476 5470 5463 5457 5450 5443 5437 5430 5424 5418 5411 5405 5399 5393 5386 5380 5374 5368 5362 5356 5351 5346 5341 5337 5333 5330 5327 5324 5322 5321 5320 5320 5320 5321 5323 5325 5327
5499 5493 5488 5483 5477 5471 5465 5459 5453 5447 5440 5434 5427 5421 5414 5408 5401 5395 5388 5382 5376 5369 5363 5357 5351 5345 5340 5336 5331 5327 5324 5320 5317 5314 5312 5310 5308 5308 5308 5309 5311 5313 5316
5488 5483 5477 5472 5466 5461 5455 5449 5443 5436 5430 5424 5417 5411 5404 5398 5391 5385 5378 5372 5366 5359 5353 5347 5342 5336 5331 5327 5323 5319 5315 5312 5308 5305 5303 5301 5299 5298 5298 5299 5300 5303 5306
5477 5472 5467 5461 5456 5450 5444 5439 5433 5427 5420 5414 5407 5400 5394 5388 5381 5375 5368 5362 5356 5350 5344 5339 5333 5328 5323 5319 5315 5311 5307 5303 5300 5297 5295 5293 5291 5289 5289 5289 5291 5293 5296
5467 5462 5456 5451 5445 5440 5434 5429 5423 5417 5410 5404 5397 5390 5384 5378 5371 5365 5359 5353 5347 5341 5335 5330 5325 5320 5315 5311 5307 5303 5299 5295 5292 5289 5287 5285 5283 5282 5282 5282 5283 5285 5288
5456 5451 5446 5441 5435 5430 5424 5418 5413 5406 5400 5394 5387 5381 5375 5368 5362 5356 5350 5344 5338 5332 5327 5322 5317 5312 5308 5303 5299 5295 5291 5288 5285 5282 5280 5278 5277 5276 5276 5276 5277 5279 5281
5445 5441 5436 5430 5425 5420 5414 5408 5402 5396 5390 5384 5378 5372 5365 5359 5353 5347 5342 5336 5330 5325 5320 5315 5310 5305 5300 5296 5292 5288 5285 5281 5278 5276 5274 5272 5271 5271 5271 5271 5272 5274 5276
5435 5430 5425 5420 5415 5410 5404 5398 5392 5386 5380 5374 5368 5363 5357 5351 5345 5339 5334 5328 5323 5318 5313 5308 5303 5299 5294 5290 5286 5283 5279 5276 5273 5271 5269 5268 5267 5266 5266 5267 5268 5270 5272
Wind_Speed
24 25 26 27 28 28 29 29 30 31 32 33 33 34 34 36 37 38 39 41 43 45 47 49 50 51 52 52 53 55 56 57 57 57 57 58 58 58 58 59 59 58 57
25 26 26 27 28 28 29 30 31 32 32 33 33 34 35 36 37 39 39 40 41 43 45 47 49 51 52 53 53 55 57 58 59 58 58 58 59 60 59 59 60 60 59
25 26 26 27 27 28 29 30 31 31 31 32 33 34 35 36 36 37 38 40 40 42 44 45 48 50 51 54 55 56 57 58 59 59 60 61 61 60 60 61 61 61 61
24 25 25 26 27 27 29 30 31 32 32 33 34 35 36 37 38 39 40 41 43 44 45 46 47 49 51 53 54 56 57 58 59 59 60 62 62 61 62 62 62 62 62
24 25 26 27 28 29 30 31 32 33 33 34 35 35 36 37 39 40 41 43 44 45 46 48 49 50 51 53 54 55 56 57 59 60 60 61 61 62 62 62 62 61 60
25 26 27 28 29 30 31 32 33 33 34 35 35 36 37 39 40 41 42 43 44 45 46 47 49 50 51 53 54 56 57 58 59 60 60 61 62 63 63 63 64 64 62
27 28 28 29 31 32 33 33 34 34 35 36 36 37 38 39 40 41 42 43 44 46 47 48 49 49 51 52 53 55 56 57 58 59 60 60 62 64 64 64 64 64 62
28 29 30 32 32 33 33 34 35 36 36 36 36 37 38 39 40 41 42 43 44 45 46 46 48 49 51 52 53 54 55 56 57 58 59 60 61 62 63 63 63 63 62
29 30 31 33 33 34 35 35 36 37 37 38 38 39 40 41 42 43 43 43 44 45 46 47 49 50 52 53 53 54 54 55 56 58 59 60 60 60 61 62 63 63 62
31 32 33 33 34 34 35 36 37 37 38 39 39 40 41 42 43 43 43 43 44 45 47 48 50 51 51 52 53 53 54 54 55 56 57 57 57 58 59 60 61 62 61
34 35 35 35 35 36 36 37 37 38 38 39 39 40 41 42 42 42 43 43 44 45 46 47 49 50 50 51 52 52 52 53 54 54 53 53 54 54 54 55 57 57 57
35 36 37 37 37 37 38 38 39 39 40 40 40 41 41 42 42 42 43 43 44 45 45 46 47 48 49 50 50 51 51 51 52 52 52 52 52 52 53 53 53 53 54
37 38 38 38 38 39 39 40 40 41 41 41 42 42 42 42 42 42 42 43 43 44 44 45 46 47 47 47 48 49 50 50 50 51 51 51 51 51 51 51 52 52 52
39 40 40 40 40 40 40 41 41 42 42 42 43 42 42 42 42 42 41 42 42 43 44 44 44 44 44 44 46 47 47 48 48 49 49 49 49 50 50 51 51 51 50
40 40 41 40 41 41 41 41 42 43 43 43 43 42 42 41 41 41 41 41 42 42 43 43 43 42 42 43 43 44 44 45 46 46 46 46 47 47 48 48 49 50 49
40 41 41 41 41 41 41 42 43 43 43 43 43 42 41 41 40 40 41 41 42 42 42 41 41 40 40 41 41 41 41 42 42 43 43 43 43 43 44 45 46 47 48
41 41 42 41 41 41 41 42 43 43 44 43 43 42 41 40 40 40 41 41 41 41 41 40 40 40 40 39 38 38 38 38 39 39 39 39 40 40 40 41 43 44 44
41 41 41 41 41 42 42 42 43 43 43 43 43 42 41 40 40 41 41 40 40 40 40 40 40 39 39 38 36 35 35 34 35 35 36 36 37 38 38 37 38 39 40
41 41 41 42 42 42 42 42 43 43 42 42 42 41 41 41 41 41 40 40 40 40 40 40 39 37 36 35 33 32 31 31 31 32 32 33 34 34 35 35 35 35 36
41 41 41 41 41 42 42 42 42 42 42 42 41 40 40 41 41 40 40 40 39 39 39 38 36 34 33 32 31 29 28 28 29 29 28 29 30 30 31 32 32 32 33
41 41 41 41 40 41 41 41 41 41 41 42 41 41 40 40 40 39 39 39 39 38 37 35 33 32 31 30 29 28 27 27 27 26 25 25 26 26 27 28 29 30 30
40 40 40 40 40 40 40 40 41 41 42 42 41 40 40 39 39 38 38 37 38 37 36 33 31 30 30 29 28 27 27 26 25 25 23 23 23 22 23 24 25 27 28
39 39 40 40 40 40 40 40 41 41 42 42 40 40 39 38 37 37 37 37 37 35 34 32 31 30 29 28 28 27 26 25 24 23 22 21 20 20 19 20 22 24 25
38 38 39 39 39 40 40 40 41 41 42 41 40 39 38 37 36 36 36 35 35 33 32 30 30 29 28 27 26 25 24 23 22 21 20 19 18 18 18 18 19 20 22
37 38 38 38 38 39 39 40 40 41 41 40 38 38 37 36 35 34 34 34 33 31 29 28 28 27 27 25 24 23 22 21 20 18 17 16 16 16 16 16 17 18 20
37 37 37 37 38 38 39 39 39 40 39 38 37 36 35 34 33 33 32 32 30 28 27 27 27 26 24 23 21 20 19 19 17 16 14 13 13 13 14 14 15 16 18
Wind_Direction
295 294 293 291 289 288 287 285 283 282 280 278 276 275 274 272 270 268 266 266 264 262 260 260 260 261 260 260 259 258 258 258 258 258 258 258 258 258 258 258 257 257 257
299 297 296 295 293 291 289 288 287 285 282 280 278 276 274 273 272 270 269 267 266 265 263 261 261 261 261 260 260 260 260 260 260 258 258 258 259 259 257 256 256 256 256
303 302 300 299 296 294 293 291 290 288 286 283 280 278 276 275 273 272 270 269 268 268 266 264 264 263 262 262 262 262 261 261 261 260 259 259 259 259 258 257 256 255 255
307 306 305 303 301 299 297 295 293 290 288 285 284 282 279 277 276 275 273 272 271 270 269 268 267 266 265 264 264 263 263 262 262 261 261 260 259 259 259 258 257 257 256
309 308 306 304 303 302 300 299 297 294 291 289 287 285 282 281 279 278 276 274 274 273 271 270 269 268 267 266 266 265 265 264 263 262 261 260 260 260 259 259 257 257 256
310 308 307 306 305 304 304 303 301 298 295 292 290 287 285 284 283 281 279 277 276 275 273 272 271 270 269 268 268 267 266 266 265 263 262 261 260 260 259 259 258 257 257
308 308 307 307 307 307 306 305 303 300 297 295 293 290 288 287 286 284 282 281 279 278 276 275 274 273 272 271 270 269 268 267 266 265 264 263 262 261 260 260 259 259 259
309 308 309 308 308 307 307 306 305 303 301 298 295 293 292 290 288 286 285 283 282 280 279 278 277 276 275 274 272 271 270 269 268 266 266 265 263 262 260 260 259 259 258
313 312 311 310 308 307 307 306 306 305 303 300 298 296 295 293 291 289 287 286 284 282 281 280 279 278 277 276 275 273 271 270 269 267 267 266 264 263 261 260 259 259 258
312 312 311 310 309 308 308 307 306 305 304 302 300 299 297 295 294 292 290 289 287 286 284 283 281 280 279 278 277 275 273 272 271 269 267 266 265 264 263 261 260 258 258
310 310 310 310 309 308 308 309 308 307 306 305 303 302 300 299 298 296 294 292 291 290 288 286 284 283 281 280 278 276 274 273 272 271 270 268 266 265 264 262 260 259 257
309 310 310 309 308 308 308 308 308 308 308 307 306 304 303 302 300 297 295 295 294 293 292 290 288 286 284 281 279 278 276 274 272 271 270 268 266 265 263 261 260 258 257
309 309 309 309 308 308 308 308 308 308 308 308 307 305 304 303 302 300 299 298 298 297 295 294 291 289 286 282 280 278 277 275 273 272 270 269 267 265 263 260 259 258 257
308 309 309 309 308 308 308 309 309 309 309 309 308 306 305 304 303 302 301 301 300 299 298 297 295 292 288 285 282 280 277 275 274 273 271 269 268 265 263 261 259 257 255
307 308 308 308 308 309 309 310 310 311 311 310 309 308 306 305 304 302 301 301 301 300 299 298 296 294 291 289 286 283 279 278 276 275 273 270 267 265 263 260 258 256 254
306 307 308 308 308 309 310 311 312 312 312 312 311 310 309 307 305 304 304 303 303 302 302 300 298 296 294 292 290 286 283 280 277 276 273 271 268 265 263 260 258 256 254
306 307 307 308 308 309 310 311 312 313 314 313 313 312 311 309 308 307 307 307 306 305 305 303 301 299 298 296 293 290 287 283 279 276 273 271 269 266 264 262 259 256 254
306 307 307 307 308 309 310 311 312 313 314 314 314 313 312 311 310 310 309 308 308 308 307 306 304 302 300 299 297 294 289 285 282 279 276 272 269 266 264 262 260 255 253
306 306 306 307 308 309 310 312 313 313 313 313 313 312 312 312 312 311 310 310 310 310 309 308 307 304 302 300 299 296 292 289 286 283 279 275 271 267 263 260 258 254 250
305 306 306 307 308 309 311 312 313 313 314 314 314 313 312 312 312 312 312 312 312 312 311 310 308 307 305 303 301 299 296 293 290 287 283 278 273 267 262 258 254 251 247
304 305 307 308 309 310 311 312 313 314 314 315 314 313 313 313 313 312 312 312 313 313 313 312 311 310 309 307 305 303 300 296 293 290 286 282 278 270 263 256 250 246 242
304 305 307 308 309 310 310 311 312 313 314 315 314 314 314 314 314 314 313 313 313 313 313 313 311 310 310 309 307 304 301 299 296 291 287 284 280 273 264 255 248 242 238
304 305 307 308 309 309 310 310 312 313 315 315 315 314 315 315 315 315 314 314 314 314 314 312 311 310 309 308 306 305 302 300 296 292 287 283 278 272 265 256 247 240 237
304 305 307 308 309 309 310 310 312 314 315 315 315 314 314 314 315 315 315 315 315 314 314 313 312 311 310 309 307 305 303 302 298 293 288 282 274 268 264 256 246 238 234
304 306 307 308 309 310 311 312 313 314 315 315 315 314 315 315 315 316 316 316 316 316 315 315 315 315 313 311 309 307 306 304 299 293 288 281 273 265 260 252 243 235 229
304 306 307 309 310 311 312 313 313 314 315 315 315 315 315 316 316 316 318 318 318 318 317 317 317 317 316 313 312 309 307 305 302 295 289 281 272 264 256 247 238 230 222